[[{"header":{"parameterUnit":"m.s-1","parameterCategory":1,"la1":30.2991,"la2":30.254,"lo1":-89.0895,"lo2":-89.0444,"dy":0.0017,"dx":0.0017,"nx":28,"ny":28,"refTime":"2025-08-09T21:00:00:Z","depth":0,"parameterNumber":2,"parameterNumberName":"U-component_of_WINDS"},"data":[0,0,0,0,0,0,0,0,0,0,0,0,0,0,0,0,0,0,0,0,0,0,0,0,0,0,0,0,0,0,0,0,0,0,0,0,0,0,0,0,0,0,0,0,0,0,0,0,0,0,0,0,0,0,0,0,0,0,-1.9584,-1.9584,0,-1.9577,-1.9577,-1.9577,-1.95,-1.9498,-1.9496,-1.9495,-1.9488,-1.9489,-1.9491,0,0,0,0,0,0,0,0,0,0,0,0,0,-1.9532,-1.9533,-1.9584,-1.9584,-1.9584,-1.9577,-1.9577,-1.9577,-1.9501,-1.9498,-1.9496,-1.9494,-1.9487,-1.9489,-1.9491,0,0,0,0,0,0,0,0,0,0,0,0,0,-1.9543,-1.9534,-1.9584,-1.9545,-1.9541,-1.9577,-1.9577,-1.9576,-1.9501,-1.9498,-1.9495,-1.9493,-1.9486,-1.9489,-1.9491,-1.9563,0,0,-1.9498,-1.9499,0,0,0,0,0,0,0,0,-1.9542,-1.9545,-1.9551,-1.9548,-1.9544,-1.9536,-1.9556,-1.9572,-1.9502,-1.9516,-1.9495,-1.9491,-1.9506,-1.9507,-1.9512,-1.9563,-1.9563,-1.9499,-1.95,-1.9501,-1.9502,0,0,0,0,0,0,0,-1.9541,-1.9544,-1.9581,-1.9551,-1.9547,-1.9528,-1.9526,-1.9558,-1.9527,-1.9515,-1.9509,-1.951,-1.9504,-1.951,-1.9511,-1.9563,-1.9499,-1.9501,-1.9502,-1.9503,-1.9673,-1.9676,0,0,0,0,0,0,-1.9546,-1.9544,-1.9581,-1.9581,-1.9536,-1.9531,-1.9529,-1.9542,-1.9527,-1.9522,-1.9512,-1.9506,-1.9507,-1.9508,-1.951,-1.9594,-1.9501,-1.9503,-1.9505,-1.967,-1.9674,-1.9677,0,0,0,0,0,0,-1.9545,-1.955,-1.9581,-1.9561,-1.9564,-1.9535,-1.955,-1.9543,-1.9549,-1.9525,-1.9519,-1.9524,-1.9505,-1.9507,-1.9551,-1.9593,-1.9504,-1.9507,-1.9666,-1.9671,-1.9675,-1.9762,0,0,0,0,0,0,-1.9544,-1.955,-1.9577,-1.9562,-1.9565,-1.9622,-1.9552,-1.9545,-1.9553,-1.9545,-1.9534,-1.953,-1.9503,-1.9548,-1.9553,-1.9594,-1.9508,-1.9662,-1.9668,-1.9674,-1.9755,-1.9769,-1.978,0,0,0,0,0,-1.9542,-1.9602,-1.9579,-1.9584,-1.9598,-1.9624,-1.9626,-1.9594,-1.9557,-1.9584,-1.9568,-1.953,-1.9587,-1.9553,-1.9558,-1.9601,-1.966,-1.9667,-1.9673,-1.9749,-1.9766,-1.978,0,0,0,0,0,0,-1.9622,-1.9599,-1.9573,-1.963,-1.963,-1.9612,-1.9644,-1.9613,-1.9623,-1.9615,-1.9575,-1.9573,-1.9623,-1.9616,-1.9578,-1.967,-1.9617,-1.9625,-1.9673,-1.9688,-1.9701,-1.9701,-1.951,0,0,0,0,0,-1.9646,-1.9669,-1.9648,-1.97,-1.9701,-1.9673,-1.9683,-1.9659,-1.9657,-1.9657,-1.9644,-1.9644,-1.9662,-1.9675,-1.969,-1.9754,-1.975,-1.9786,-1.9799,-1.9809,-1.9817,-1.985,-1.9866,-1.97,-1.97,-1.97,0,0,-1.9696,-1.9686,-1.9703,-1.9715,-1.9712,-1.9738,-1.9673,-1.9703,-1.9721,-1.9661,-1.9701,-1.9693,-1.969,-1.9744,-1.9767,-1.974,-1.9862,-1.9818,-1.9827,-1.9828,-1.9859,-1.9875,-1.9889,-1.9705,-1.9704,-1.9703,0,0,-1.98,-1.9795,-1.9837,-1.9836,-1.9832,-1.9814,-1.9824,-1.9811,-1.9803,-1.9843,-1.9799,-1.982,-1.9852,-1.9852,-1.9856,-1.9961,-1.9926,-1.9968,-2.0034,-2.0067,-2.008,-2.0091,-2.0128,-2.0142,-1.9975,-1.9976,-1.9976,0,-1.9862,-1.9898,-1.9863,-1.9895,-1.9902,-1.9849,-1.9892,-1.9893,-1.9895,-1.99,-1.987,-1.9909,-1.9904,-1.9957,-1.9983,-1.9988,-1.9999,-1.9968,-2.0081,-2.0092,-2.0102,-2.0137,-2.0151,-1.998,-1.998,-1.9979,-1.9979,0,-1.9975,-2.0001,-2.0035,-2.0039,-2.0049,-2.0087,-2.0058,-2.0073,-2.0048,-2.0033,-2.0074,-2.0066,-2.0079,-2.009,-2.0066,-2.014,-2.0123,-2.0088,-2.0033,-2.0123,-2.0156,-2.0169,-1.9988,-1.9986,-1.9984,-1.9983,0,0,-2.0127,-2.0111,-2.0125,-2.0126,-2.0119,-2.0138,-2.0173,-2.0186,-2.02,-2.0203,-2.0232,-2.0261,-2.0228,-2.0233,-2.0208,-2.0237,-2.0321,-2.0198,-2.0197,-2.022,-2.0403,-2.0429,-2.0445,-2.0298,-2.0301,-2.0302,-2.0403,0,-2.0226,-2.0286,-2.0256,-2.0319,-2.0342,-2.0294,-2.0324,-2.0324,-2.0311,-2.0329,-2.0314,-2.0335,-2.029,-2.0293,-2.032,-2.0305,-2.0357,-2.0298,-2.0324,-2.0326,-2.0326,-2.0462,-2.049,-2.0585,-2.0415,-2.0417,-2.0419,0,-2.035,-2.0359,-2.0425,-2.0414,-2.0422,-2.0451,-2.046,-2.0478,-2.0477,-2.0465,-2.0471,-2.044,-2.0474,-2.0421,-2.0468,-2.0428,-2.0438,-2.0433,-2.0436,-2.0436,-2.0377,-2.0466,-2.0615,-2.0629,-2.0438,-2.0437,-2.0435,0,-2.0454,-2.0483,-2.0526,-2.0528,-2.0517,-2.0538,-2.0534,-2.0529,-2.0539,-2.0548,-2.0554,-2.0566,-2.0573,-2.0584,-2.0557,-2.0521,-2.0607,-2.0552,-2.0599,-2.06,-2.0618,-2.0617,-2.077,-2.0626,-2.0626,-2.0625,-2.0625,0,-2.0568,-2.061,-2.0572,-2.0599,-2.0644,-2.061,-2.0656,-2.0647,-2.0644,-2.0668,-2.0627,-2.065,-2.0614,-2.0634,-2.0613,-2.0655,-2.0658,-2.065,-2.0644,-2.0653,-2.0654,-2.0658,-2.0651,-2.0629,-2.0628,-2.0628,-2.0627,0,-2.0692,-2.0668,-2.0712,-2.0698,-2.0695,-2.0729,-2.0717,-2.0741,-2.0726,-2.0756,-2.0762,-2.0738,-2.0759,-2.0733,-2.0753,-2.0739,-2.0796,-2.078,-2.0796,-2.0791,-2.084,-2.0835,-2.1,-2.1019,-2.0863,-2.0865,-2.0866,0,-2.0766,-2.0797,-2.0786,-2.0799,-2.0798,-2.082,-2.0829,-2.0797,-2.0809,-2.081,-2.0834,-2.0852,-2.0865,-2.0901,-2.0886,-2.09,-2.0884,-2.0941,-2.0886,-2.0895,-2.0885,-2.0883,-2.0886,-2.0952,-2.0954,-2.0955,-2.0957,0,-2.0899,-2.0886,-2.0902,-2.0914,-2.0927,-2.0935,-2.094,-2.0953,-2.092,-2.0935,-2.0957,-2.0967,-2.0986,-2.1005,-2.1015,-2.1011,-2.0979,-2.0974,-2.0986,-2.0995,-2.1003,-2.0999,-2.0826,-2.097,-2.0969,-2.0968,-2.0967,-2.0967,-2.1,-2.1025,-2.1022,-2.1041,-2.1042,-2.1047,-2.1069,-2.1057,-2.1074,-2.1087,-2.1068,-2.1095,-2.1093,-2.1103,-2.1103,-2.1124,-2.11,-2.1117,-2.1121,-2.1125,-2.1132,-2.1001,-2.1126,-2.1125,-2.1125,-2.1125,-2.1124,0,-2.1131,-2.1127,-2.1145,-2.1153,-2.1168,-2.1136,-2.114,-2.1155,-2.1179,-2.1181,-2.1194,-2.1219,-2.1237,-2.1223,-2.1238,-2.1257,-2.1243,-2.1262,-2.126,-2.126,-2.1153,-2.1142,-2.1274,-2.1274,-2.1274,-2.1274,-2.1274,-2.1274,-2.1201,-2.1242,-2.1229,-2.1271,-2.1266,-2.1292,-2.1297,-2.1302,-2.1303,-2.1333,-2.1348,-2.1338,-2.1334,-2.1348,-2.1363,-2.1359,-2.1366,-2.1391,-2.1381,-2.1282,-2.1267,-2.1253,-2.1242,-2.1393,-2.1393,-2.1486,-2.1487,-2.1487]},{"header":{"parameterUnit":"m.s-1","parameterCategory":1,"la1":30.2991,"la2":30.254,"lo1":-89.0895,"lo2":-89.0444,"dy":0.0017,"dx":0.0017,"nx":28,"ny":28,"refTime":"2025-08-09T21:00:00:Z","depth":0,"parameterNumber":3,"parameterNumberName":"V-component_of_WINDS"},"data":[0,0,0,0,0,0,0,0,0,0,0,0,0,0,0,0,0,0,0,0,0,0,0,0,0,0,0,0,0,0,0,0,0,0,0,0,0,0,0,0,0,0,0,0,0,0,0,0,0,0,0,0,0,0,0,0,0,0,1.4169,1.4168,0,1.4119,1.4118,1.4118,1.4102,1.4102,1.4102,1.4102,1.4046,1.4044,1.4042,0,0,0,0,0,0,0,0,0,0,0,0,0,1.4246,1.4245,1.4169,1.4168,1.4168,1.4119,1.4118,1.4118,1.4102,1.4102,1.4102,1.4102,1.4046,1.4044,1.4042,0,0,0,0,0,0,0,0,0,0,0,0,0,1.4206,1.4244,1.4169,1.4154,1.4152,1.4119,1.4118,1.4118,1.4101,1.4102,1.4102,1.4103,1.4047,1.4045,1.4042,1.4019,0,0,1.4034,1.4033,0,0,0,0,0,0,0,0,1.4208,1.4203,1.4157,1.4155,1.4153,1.4117,1.4125,1.4084,1.4101,1.4121,1.4102,1.4103,1.4069,1.4065,1.4054,1.4016,1.4014,1.4034,1.4032,1.4031,1.4031,0,0,0,0,0,0,0,1.4211,1.4205,1.4149,1.4156,1.4154,1.4148,1.4143,1.4117,1.4093,1.4119,1.4118,1.4112,1.4068,1.4057,1.4053,1.4013,1.4034,1.4032,1.403,1.4029,1.3954,1.3954,0,0,0,0,0,0,1.4217,1.4208,1.4151,1.4148,1.4182,1.4147,1.4141,1.4128,1.4093,1.4089,1.4112,1.4112,1.4061,1.4056,1.4051,1.4022,1.4031,1.4029,1.4027,1.3955,1.3954,1.3954,0,0,0,0,0,0,1.4219,1.4212,1.4153,1.4177,1.4169,1.4145,1.4131,1.4127,1.4116,1.4088,1.4083,1.4105,1.4061,1.4054,1.4027,1.4019,1.4028,1.4025,1.3955,1.3954,1.3954,1.3963,0,0,0,0,0,0,1.4221,1.4213,1.4205,1.4177,1.4168,1.4132,1.413,1.4126,1.4112,1.4111,1.4081,1.4076,1.4061,1.4031,1.4025,1.4016,1.4023,1.3956,1.3955,1.3954,1.3963,1.3963,1.3962,0,0,0,0,0,1.4224,1.4208,1.4205,1.4198,1.4158,1.4131,1.4126,1.411,1.4112,1.4102,1.4085,1.4077,1.4022,1.4029,1.4021,1.4011,1.3956,1.3955,1.3954,1.3964,1.3963,1.3962,0,0,0,0,0,0,1.4233,1.4204,1.42,1.4175,1.4156,1.4128,1.4117,1.411,1.4088,1.4088,1.4068,1.4061,1.4036,1.4021,1.403,1.3988,1.3988,1.3986,1.3998,1.3997,1.3997,1.4,1.4021,0,0,0,0,0,1.4233,1.4215,1.419,1.4171,1.4162,1.4141,1.4129,1.4119,1.4097,1.4088,1.4069,1.4047,1.4025,1.401,1.3988,1.3962,1.3954,1.3951,1.3951,1.395,1.3948,1.3933,1.3931,1.395,1.395,1.395,0,0,1.4231,1.4213,1.4202,1.4172,1.4156,1.4137,1.4134,1.4114,1.4099,1.4085,1.4059,1.4044,1.4018,1.3991,1.3978,1.3978,1.3941,1.3949,1.3949,1.3947,1.3932,1.393,1.3928,1.395,1.395,1.395,0,0,1.4217,1.4203,1.4185,1.4169,1.4146,1.4133,1.4129,1.4103,1.4093,1.4067,1.4056,1.4037,1.3999,1.3982,1.3968,1.395,1.3941,1.3943,1.394,1.3925,1.3924,1.3922,1.3915,1.3913,1.3941,1.3941,1.3941,0,1.4217,1.419,1.4176,1.4157,1.4143,1.4132,1.4113,1.4099,1.4068,1.4059,1.406,1.4013,1.3994,1.3963,1.3959,1.3949,1.3942,1.3946,1.3925,1.3924,1.3922,1.3915,1.3913,1.3941,1.3941,1.3941,1.3941,0,1.4191,1.4172,1.416,1.4134,1.4119,1.41,1.4082,1.4069,1.406,1.4047,1.402,1.3999,1.3972,1.3964,1.3955,1.3932,1.3933,1.393,1.393,1.3921,1.3914,1.3911,1.3942,1.3942,1.3941,1.3941,0,0,1.418,1.4148,1.4144,1.4132,1.4106,1.409,1.4071,1.4047,1.4036,1.4015,1.3998,1.3967,1.3965,1.3949,1.3937,1.3925,1.3912,1.3923,1.3922,1.3921,1.3885,1.3887,1.3884,1.3907,1.3906,1.3906,1.3887,0,1.4163,1.4129,1.4117,1.4089,1.4071,1.406,1.4043,1.4025,1.4012,1.3994,1.3978,1.3957,1.3956,1.3946,1.3933,1.3916,1.3904,1.3917,1.3888,1.3888,1.3895,1.388,1.3882,1.3865,1.3884,1.3883,1.3883,0,1.4138,1.412,1.4091,1.4068,1.406,1.4045,1.4022,1.4005,1.3984,1.3976,1.3959,1.3949,1.3927,1.393,1.3899,1.3909,1.3896,1.3886,1.3885,1.3881,1.3884,1.3875,1.3859,1.3856,1.3879,1.3879,1.3879,0,1.4133,1.4101,1.4079,1.407,1.4042,1.4032,1.402,1.4,1.3986,1.3966,1.3957,1.3934,1.3921,1.3903,1.3887,1.3891,1.3858,1.3859,1.3849,1.3849,1.3841,1.3841,1.3822,1.3835,1.3835,1.3835,1.3835,0,1.4115,1.4097,1.4077,1.4063,1.4043,1.4029,1.4008,1.3996,1.3978,1.3961,1.395,1.3934,1.3914,1.3895,1.3882,1.3858,1.3853,1.3844,1.3841,1.3845,1.3846,1.3835,1.3836,1.3834,1.3834,1.3834,1.3834,0,1.4105,1.4091,1.4066,1.4044,1.4038,1.4023,1.4003,1.3989,1.3977,1.3955,1.3949,1.3929,1.3906,1.3889,1.3859,1.385,1.3825,1.3821,1.3832,1.383,1.3821,1.3822,1.3793,1.3789,1.3805,1.3805,1.3805,0,1.4093,1.408,1.4056,1.4045,1.4034,1.4015,1.4002,1.3988,1.3975,1.395,1.3939,1.3916,1.3897,1.3861,1.3843,1.382,1.3815,1.3807,1.3811,1.3816,1.3814,1.3815,1.3813,1.3806,1.3806,1.3806,1.3806,0,1.4074,1.4069,1.4051,1.4032,1.4017,1.4,1.3983,1.3975,1.3957,1.3942,1.392,1.3906,1.3876,1.3853,1.3829,1.3815,1.3807,1.3805,1.3801,1.3804,1.3811,1.3807,1.383,1.3805,1.3805,1.3805,1.3805,1.3805,1.4063,1.405,1.4032,1.4013,1.4,1.3984,1.397,1.3957,1.3939,1.3915,1.3907,1.3884,1.3864,1.3831,1.3817,1.3798,1.3797,1.3792,1.379,1.3789,1.3789,1.3816,1.3793,1.3793,1.3793,1.3793,1.3793,0,1.4043,1.4031,1.4014,1.3992,1.3977,1.3973,1.3955,1.3942,1.3922,1.3905,1.3887,1.3862,1.384,1.382,1.3797,1.3786,1.3782,1.378,1.378,1.3777,1.3791,1.3796,1.3784,1.3784,1.3784,1.3784,1.3784,1.3784,1.4031,1.4009,1.4002,1.3974,1.3962,1.394,1.393,1.3916,1.3902,1.3875,1.3857,1.3846,1.3827,1.3803,1.3782,1.3777,1.3769,1.3768,1.3762,1.3775,1.3776,1.3777,1.3782,1.3767,1.3767,1.3749,1.3749,1.3749]}]]